ONEWEB-0028, 45140

Orbit data source: Space-Track

ONEWEB-0028, 45140 is a payload satellite owned by One Web (UK) in LEO that was launched on Thu, 06 Feb 2020 UTC via a SOYUZ-2-1B launch vehicle from the Tyuratam Missile And Space Complex (TTMTR). Payload-class satellites include a variety of spacecraft equipped with specific instruments for various scientific and technological missions. These include communications satellites like Starlink; space stations such as the ISS; scientific satellites like the Hubble; Earth observation satellites from companies like Planet Labs, Umbra, and HawkEye 360; GPS; miniature CubeSats for education and research; and military/defense satellites.

Loading next visibility...
Identifier
45140, 2020-008K
Orbit
LEO
Country
Flag of UKUK
Related business
Manufacturer
One Web
Mission
Operational Commercial Communications
Bus & Motor
ARROW, Unknown motor
Mass
148 kg wet, ~140 kg dry
Launch date (UTC)
2020-02-06 (6 years ago)
Launch vehicle
SOYUZ-2-1B
Launch site
Tyuratam Missile And Space Complex (TTMTR)
Object type
Payload
Rocket body
Debris
Shape & HBR
Trap Box + 2 Pan, 6.7 m
Radar Cross Section
3.464 m², Large (>1 m²)

Expand to show TLE details & history
Last TLE update: 12 hours ago

TLE from 12 hours ago
0 ONEWEB-0028
1 45140U 20008K   26126.46189631 -.00000261  00000-0 -77898-3 0  9992
2 45140  87.8921  29.3695 0002315  86.9273 273.2120 13.10852549303158
Epoch: 2026-05-06T11:05Z
TLE epoch observation values (Epoch: 2026-05-06T11:05:07.841Z)
Latitude
0.00004°
Longitude
-1.23522°
Altitude
1,222.653 km
Speed
7.243 km/s
True Right ascension
01h 57m 28s
True Declination
0° 00' 00"
Sunlit
Object was in daylight at epoch
Visualization orbit readout
Latitude
Unknown
Longitude
Unknown
Altitude
Unknown
Speed
Unknown
Apparent Right ascension
Unknown
Apparent Declination
Unknown
Sunlit
N/A
Visualization observer readout
Local Sidereal Time
07:02:24
Azimuth
Unknown
Elevation
Unknown
Doppler factor
Unknown
Orbital elements
Apogee altitude
1,218.74 km
Perigee altitude
1,215.224 km
Semi-major axis
7,595.119 km
Eccentricity
0.00023
Inclination
87.8921°
RAAN
29.3695°
Arg. of periapsis
86.9273°
True anomaly
273.18551°
Mean anomaly
273.212°
Eccentric anomaly
273.19876°
Mean motion
3.279 °/min
Orbital period
109.79 mins
BSTAR
-0.00077898
Loading maneuver chart data...
Computing Atmospheric mass density...
Loading historical data...
Loading historical data...
Loading historical data...
Loading historical data...
Loading historical data...
Loading historical data...
Loading historical data...

Documentation

Showing up to 5 results
|